Location: Melham
(44.5575°N, 97.6865°W)
Time: 21:17:51
(UTC+00:00)

X-37B - Visible Passes

Search period start: 30 November 2020 00:00
Search period end: 10 December 2020 00:00
Orbit: 384 x 390 km, 45.0° (Epoch: 26 November)

Date Brightness Start Highest point End Pass type
(mag) Time Alt. Az. Time Alt. Az. Time Alt. Az.
30 Nov 3.4 01:29:26 10° W 01:30:26 19° W 01:30:26 19° W visible
01 Dec 0.5 00:30:53 10° WSW 00:34:02 73° SSE 00:34:30 59° ESE visible
01 Dec 1.1 23:32:26 10° WSW 23:35:31 50° SSE 23:38:33 10° E visible
02 Dec 2.3 01:08:55 10° W 01:10:49 33° W 01:10:49 33° W visible
03 Dec 0.5 00:10:19 10° W 00:13:30 89° N 00:14:52 31° E visible
03 Dec 4.2 01:46:59 10° W 01:47:08 11° W 01:47:08 11° W visible
04 Dec 0.9 00:48:24 10° W 00:51:11 64° WNW 00:51:11 64° WNW visible
04 Dec 0.5 23:49:49 10° W 23:53:00 80° N 23:55:17 17° E visible
05 Dec 3.3 01:26:28 10° W 01:27:33 19° W 01:27:33 19° W visible
06 Dec 0.5 00:27:53 10° W 00:31:04 87° SSW 00:31:42 54° ESE visible
06 Dec 0.5 23:29:18 10° W 23:32:29 81° N 23:35:40 10° E visible
07 Dec 2.2 01:05:59 10° W 01:08:12 35° WSW 01:08:12 35° WSW visible
08 Dec 0.8 00:07:22 10° W 00:10:32 67° SSW 00:12:33 20° ESE visible
08 Dec 4.1 01:44:31 10° WSW 01:44:50 12° WSW 01:44:50 12° WSW visible
09 Dec 2.3 00:45:35 10° W 00:48:23 29° SSW 00:49:19 24° S visible
09 Dec 1.6 23:46:53 10° W 23:49:56 45° SSW 23:52:59 10° SE visible
